Winfield, KS

2:49 PM CDT on April 30, 2017 (GMT -0500)
Strother

Weather History for KWLD - October, 2013

Change the Weather History Date:

Saturday, October 5, 2013

  Actual Average Record
Temperature  
Mean Temperature 56 °F -  
Max Temperature 66 °F 72 °F 89 °F (2007)
Min Temperature 48 °F 50 °F 39 °F (1999)
Degree Days  
Heating Degree Days 9    
Growing Degree Days 6 (Base 50)    
Moisture  
Dew Point 37 °F    
Average Humidity 54    
Maximum Humidity 74    
Minimum Humidity 34    
Precipitation  
Precipitation 0.00 in - - ()
Sea Level Pressure  
Sea Level Pressure 30.05 in    
Wind  
Wind Speed 13 mph (NW)    
Max Wind Speed 21 mph    
Max Gust Speed 26 mph    
Visibility 10 miles    
Events      
Averages and records for this station are not official NWS values.
T = Trace of Precipitation, MM = Missing Value Source: NWS Daily Summary

Daily Weather History Graph

Daily Weather History Graph

Search for Another Location

Airport or City:

Trip Planner

Search our weather history database for the weather conditions in past years. The results will help you decide how hot, cold, wet, or windy it might be!

Date:

Astronomy

Oct. 05, 2013 Rise Set
Actual Time 7:27 AM CDT 7:05 PM CDT
Civil Twilight 7:01 AM CDT 7:31 PM CDT
Nautical Twilight 6:31 AM CDT 8:01 PM CDT
Astronomical Twilight 6:00 AM CDT 8:31 PM CDT
Moon 8:06 AM CDT (10/5) 7:27 PM CDT (10/5)
Length of Visible Light 12h 29m
Length of Day
11h 37m
New Moon, 1% of the Moon is Illuminated
Oct 5
New Moon
Oct 11
First Quarter
Oct 18
Full
Oct 26
Last Quarter
Nov 3
New

Hourly Weather History & Observations

Time (CDT) Temp. Dew Point Humidity Pressure Visibility Wind Dir Wind Speed Gust Speed Precip Events Conditions
12:54 AM 55.9 °F 45.0 °F 67% 29.97 in 10.0 mi North 11.5 mph - N/A   Overcast
1:54 AM 55.0 °F 39.0 °F 55% 30.00 in 10.0 mi North 10.4 mph - N/A   Overcast
2:54 AM 53.1 °F 37.0 °F 55% 30.01 in 10.0 mi NNW 15.0 mph - N/A   Overcast
3:54 AM 52.0 °F 36.0 °F 54% 30.00 in 10.0 mi North 16.1 mph 24.2 mph N/A   Overcast
4:54 AM 51.1 °F 35.1 °F 54% 30.05 in 10.0 mi NNW 12.7 mph - N/A   Overcast
5:54 AM 50.0 °F 36.0 °F 59% 30.05 in 10.0 mi NNW 8.1 mph - N/A   Overcast
6:54 AM 50.0 °F 36.0 °F 59% 30.06 in 10.0 mi NNW 15.0 mph 20.7 mph 0.00 in   Overcast
7:54 AM 50.0 °F 36.0 °F 59% 30.05 in 10.0 mi NNW 12.7 mph - N/A   Overcast
8:54 AM 50.0 °F 35.1 °F 57% 30.09 in 10.0 mi NW 18.4 mph 21.9 mph N/A   Overcast
9:54 AM 51.1 °F 36.0 °F 56% 30.13 in 10.0 mi NW 10.4 mph 19.6 mph N/A   Overcast
10:54 AM 52.0 °F 35.1 °F 53% 30.14 in 10.0 mi NW 15.0 mph - N/A   Overcast
11:54 AM 55.9 °F 36.0 °F 47% 30.13 in 10.0 mi WNW 17.3 mph 23.0 mph N/A   Clear
12:54 PM 57.9 °F 36.0 °F 44% 30.12 in 10.0 mi NW 16.1 mph 23.0 mph N/A   Scattered Clouds
1:54 PM 61.0 °F 37.0 °F 41% 30.08 in 10.0 mi WNW 18.4 mph 26.5 mph N/A   Clear
2:54 PM 63.0 °F 37.0 °F 38% 30.05 in 10.0 mi WNW 18.4 mph 25.3 mph N/A   Clear
3:54 PM 64.9 °F 37.0 °F 36% 30.02 in 10.0 mi West 11.5 mph - N/A   Clear
4:54 PM 64.9 °F 36.0 °F 34% 30.01 in 10.0 mi WNW 20.7 mph 26.5 mph N/A   Clear
5:54 PM 64.0 °F 35.1 °F 34% 30.01 in 10.0 mi West 15.0 mph - N/A   Clear
6:54 PM 57.9 °F 37.9 °F 47% 30.02 in 10.0 mi WNW 6.9 mph - N/A   Clear
7:54 PM 54.0 °F 39.9 °F 59% 30.04 in 10.0 mi West 4.6 mph - N/A   Clear
8:54 PM 52.0 °F 39.9 °F 63% 30.04 in 10.0 mi West 5.8 mph - N/A   Clear
9:54 PM 48.9 °F 41.0 °F 74% 30.04 in 10.0 mi SW 5.8 mph - N/A   Clear
10:54 PM 48.9 °F 39.0 °F 69% 30.05 in 10.0 mi West 4.6 mph - N/A   Clear
11:54 PM 48.0 °F 39.0 °F 71% 30.05 in 10.0 mi WSW 4.6 mph - N/A   Clear